Wind_Speed
30 30 30 30 29 29 29 28 28 29 30 33 35 37 38 39 41 42 42 43 41 40 39 38 38 37 36 37 36 35 34 32 29 27 27 26 26 25
29 29 29 29 29 29 29 29 29 29 29 30 31 34 36 38 40 41 41 41 42 41 41 40 39 38 37 37 36 36 35 32 30 28 28 28 27 27
29 30 30 30 30 31 31 31 32 31 31 30 30 30 31 32 34 36 39 40 39 40 39 39 39 38 38 37 37 36 34 32 31 30 29 29 29 28
31 31 32 32 33 33 33 34 34 34 34 33 31 30 29 29 29 31 34 36 36 36 37 38 38 37 37 36 37 36 34 33 31 30 30 30 30 29
32 32 33 34 34 35 35 36 36 37 36 35 34 32 30 28 27 26 27 29 31 33 34 35 36 35 35 35 37 36 34 33 31 31 31 31 31 31
31 32 33 34 35 36 36 37 38 38 38 37 36 35 32 30 28 25 25 25 26 28 31 33 33 32 33 34 35 35 34 33 32 32 32 32 33 32
30 31 33 34 35 36 36 37 37 38 38 37 37 36 35 33 31 29 26 25 25 25 26 28 29 30 30 31 32 33 33 33 33 33 34 34 34 33
29 31 32 33 34 35 36 37 37 37 37 37 36 36 35 34 33 32 29 27 26 25 24 23 24 26 28 28 30 30 33 34 33 33 35 35 35 33
28 29 31 32 33 34 34 35 35 36 35 36 35 35 35 34 33 33 32 31 29 27 25 22 20 21 24 26 28 31 32 33 34 34 34 34 35 34
25 26 28 29 30 30 31 32 33 34 34 35 36 35 35 34 33 33 32 32 31 30 29 26 23 21 20 23 25 28 31 32 32 32 32 32 32 33
22 23 24 25 26 27 28 29 31 32 33 34 35 35 35 34 33 33 32 32 32 31 31 30 26 25 25 24 25 28 30 31 31 31 31 31 31 32
19 19 21 22 23 24 26 28 29 31 32 33 33 34 34 34 34 33 33 33 32 32 32 32 31 28 28 27 25 27 29 31 31 31 31 31 31 31
16 17 19 21 23 24 26 28 29 31 32 32 33 33 34 34 34 34 33 32 31 31 31 31 32 31 31 30 28 27 28 30 31 32 32 32 31 31
16 18 19 21 22 24 25 27 28 29 30 31 32 32 33 34 34 34 34 33 33 32 31 31 31 32 33 33 32 31 29 28 29 30 32 33 33 32
15 17 18 20 21 22 23 24 25 26 27 28 29 30 31 32 33 34 35 35 35 34 33 33 33 33 34 36 36 36 34 32 30 31 32 33 34 35
15 16 18 19 20 22 22 23 23 24 24 25 25 25 25 26 28 30 32 34 35 35 36 35 34 34 35 36 38 40 40 39 37 36 35 35 35 37
14 15 17 18 20 22 22 23 23 22 22 21 21 21 21 22 23 25 27 29 31 32 34 34 34 34 35 37 38 38 40 41 41 40 40 40 39 39
13 14 16 19 20 22 23 23 23 23 22 21 20 20 20 21 22 23 24 26 28 30 32 33 34 35 35 36 37 38 40 41 42 43 43 43 43 43
12 14 16 19 21 23 24 24 24 23 22 21 21 20 20 21 21 22 23 25 26 28 30 31 33 34 35 35 36 37 38 39 40 41 41 42 43 44
12 14 16 19 21 23 24 25 25 24 24 23 22 22 21 22 22 22 23 24 25 26 28 29 30 32 34 36 36 37 37 37 38 38 38 39 40 41
12 14 16 18 20 22 24 25 25 25 25 25 24 23 23 23 23 23 23 24 25 25 26 27 28 30 32 34 36 37 37 37 38 38 37 37 37 38
12 13 15 18 20 22 23 25 26 26 27 27 26 26 25 24 24 24 24 24 24 25 25 26 27 28 30 32 34 36 37 37 37 36 37 37 38 37
12 13 15 17 19 21 23 25 26 28 29 29 29 28 27 26 26 25 25 25 25 25 25 25 25 26 28 30 32 34 37 38 38 38 38 37 37 38
Wind_Direction
271 271 272 273 273 274 274 275 276 277 276 275 273 274 272 269 266 265 263 262 261 262 261 259 258 257 257 254 254 253 252 253 253 252 250 246 244 243
269 269 270 271 272 273 273 273 275 277 278 278 276 276 274 272 270 268 266 264 262 260 261 260 258 257 257 255 254 253 251 249 248 247 246 243 242 242
267 268 269 270 271 271 271 271 272 274 276 277 278 278 277 275 273 270 267 265 263 259 257 257 258 257 257 254 253 252 249 247 245 243 242 240 240 240
267 268 269 269 270 271 271 270 270 271 273 275 277 278 279 279 279 275 268 264 261 259 257 257 256 255 254 253 252 250 248 243 240 238 237 236 236 237
269 270 270 270 271 270 270 270 270 270 271 273 274 276 278 281 283 281 275 269 262 259 257 256 254 253 252 251 250 247 244 239 235 234 233 232 232 234
272 272 272 272 272 271 271 271 270 270 271 271 272 274 275 277 280 281 279 273 266 261 257 254 252 252 250 249 246 243 239 234 230 229 229 229 230 233
274 273 273 272 272 272 271 271 270 271 271 271 271 272 273 274 275 275 274 274 271 265 260 254 249 247 244 243 241 239 234 228 226 226 228 230 230 233
275 274 274 273 273 273 272 272 272 272 273 273 273 272 272 272 272 272 271 271 271 268 263 257 252 245 241 239 236 232 227 226 224 225 225 226 229 233
275 275 275 276 276 275 275 275 275 275 275 275 275 275 273 272 272 271 270 269 269 268 264 260 257 250 240 236 235 230 225 225 225 225 226 227 229 231
277 279 279 280 279 279 279 279 279 278 277 277 277 277 276 274 272 271 270 269 267 267 265 263 261 258 248 241 235 232 230 228 228 230 231 231 230 230
281 282 284 285 285 285 283 282 282 281 279 278 278 278 278 277 275 272 270 269 267 265 263 263 261 257 254 253 245 236 232 230 229 230 231 232 231 230
287 288 289 290 289 289 288 286 285 283 282 280 279 277 276 276 275 273 271 269 268 265 262 260 258 257 254 255 251 242 236 233 231 232 232 231 230 230
293 295 296 296 296 295 293 291 289 287 285 283 281 279 277 275 274 273 272 269 267 265 263 260 256 251 250 250 251 249 242 235 232 230 231 230 230 231
297 299 301 302 302 301 299 297 295 292 290 287 284 281 279 276 274 272 270 268 267 265 262 259 255 250 247 246 247 248 246 241 237 234 232 232 232 234
301 305 307 310 311 309 307 304 302 298 295 291 287 284 280 278 275 272 270 267 266 264 263 260 257 253 249 246 244 244 245 246 244 240 237 236 235 235
305 310 314 318 319 317 315 313 310 307 303 299 295 291 286 281 278 276 273 269 267 265 262 261 258 255 252 250 248 247 246 246 245 244 242 239 239 240
310 317 323 326 327 325 323 321 318 315 312 308 303 298 293 289 284 280 277 274 270 268 265 262 260 257 254 251 249 248 247 247 246 245 245 245 244 244
316 325 332 335 336 334 332 328 325 322 318 314 310 305 300 295 291 287 282 278 274 272 269 267 264 261 258 255 251 249 247 248 248 248 247 247 248 248
319 330 336 339 340 340 338 336 333 330 326 322 317 311 306 302 296 292 288 284 279 276 272 270 267 264 260 255 253 251 248 247 247 248 249 249 250 251
319 329 335 339 342 342 341 339 337 335 332 328 323 317 312 307 302 298 294 291 286 281 276 272 269 265 262 257 253 250 248 246 246 246 247 248 248 249
316 326 333 338 341 342 342 341 339 338 335 332 328 322 317 312 307 303 298 294 290 286 281 276 271 267 263 259 254 250 247 245 244 243 242 241 242 244
309 320 329 335 339 340 340 340 339 339 338 335 331 327 322 316 311 307 303 299 295 291 286 281 276 270 265 259 255 251 248 245 243 240 238 238 238 239
300 313 323 330 334 338 339 340 339 339 339 337 334 330 325 320 315 310 305 301 298 294 290 285 279 273 267 262 256 252 249 246 244 240 238 238 239 239
Height
5782 5782 5781 5781 5780 5779 5779 5778 5778 5776 5774 5772 5770 5769 5768 5767 5767 5767 5767 5767 5768 5769 5770 5771 5772 5774 5775 5777 5779 5780 5783 5785 5787 5789 5792 5794 5797 5799
5774 5774 5773 5772 5772 5771 5771 5770 5769 5768 5766 5764 5762 5760 5759 5757 5756 5756 5756 5756 5757 5758 5760 5761 5762 5764 5765 5767 5769 5771 5773 5776 5778 5781 5784 5786 5789 5792
5765 5765 5764 5764 5763 5763 5762 5762 5761 5760 5758 5757 5754 5752 5750 5748 5747 5745 5745 5746 5746 5747 5748 5750 5751 5753 5755 5757 5759 5761 5764 5767 5770 5773 5776 5778 5781 5784
5756 5756 5755 5755 5754 5754 5753 5753 5752 5751 5750 5748 5746 5744 5742 5739 5738 5736 5735 5735 5736 5737 5738 5739 5741 5743 5745 5747 5750 5752 5755 5758 5761 5764 5767 5770 5773 5776
5747 5746 5746 5746 5745 5745 5744 5744 5743 5742 5741 5740 5738 5736 5734 5732 5730 5728 5727 5726 5726 5727 5728 5729 5731 5733 5735 5738 5740 5743 5746 5749 5752 5756 5759 5762 5765 5768
5738 5737 5737 5737 5736 5736 5735 5734 5734 5733 5732 5731 5729 5728 5727 5725 5724 5722 5720 5719 5718 5718 5719 5720 5721 5723 5726 5728 5731 5734 5737 5740 5743 5747 5750 5754 5757 5760
5729 5729 5728 5728 5727 5726 5726 5725 5724 5723 5722 5721 5720 5719 5719 5718 5717 5715 5714 5713 5712 5711 5711 5712 5713 5715 5717 5719 5722 5725 5728 5732 5735 5738 5742 5745 5748 5752
5721 5720 5720 5719 5718 5718 5717 5716 5715 5714 5713 5712 5711 5710 5709 5709 5708 5708 5707 5706 5705 5705 5705 5705 5706 5707 5709 5711 5714 5717 5720 5723 5726 5729 5733 5737 5740 5744
5713 5713 5712 5711 5710 5709 5708 5707 5706 5704 5703 5702 5701 5701 5700 5700 5700 5699 5699 5698 5698 5698 5698 5698 5699 5700 5701 5703 5706 5709 5712 5715 5718 5721 5724 5728 5732 5736
5706 5705 5705 5703 5702 5701 5699 5698 5697 5695 5694 5693 5692 5691 5691 5690 5690 5690 5690 5690 5690 5690 5691 5691 5692 5693 5694 5696 5699 5702 5705 5707 5710 5713 5717 5720 5724 5728
5700 5699 5698 5697 5695 5694 5692 5690 5689 5687 5685 5684 5682 5681 5681 5680 5680 5681 5681 5681 5682 5682 5683 5684 5685 5687 5688 5689 5691 5694 5697 5700 5703 5706 5709 5713 5716 5719
5695 5694 5692 5691 5689 5687 5685 5683 5681 5679 5677 5675 5674 5672 5672 5671 5671 5671 5671 5672 5672 5674 5675 5676 5678 5680 5681 5683 5684 5686 5689 5692 5695 5698 5701 5704 5708 5711
5690 5689 5687 5686 5683 5681 5678 5676 5673 5670 5668 5666 5664 5663 5662 5661 5661 5661 5662 5662 5663 5664 5666 5667 5669 5672 5674 5675 5677 5679 5681 5683 5686 5689 5693 5696 5699 5703
5686 5685 5683 5680 5678 5675 5672 5668 5665 5662 5659 5657 5655 5653 5652 5651 5651 5651 5652 5653 5654 5655 5656 5658 5660 5662 5665 5667 5669 5671 5673 5675 5678 5681 5684 5687 5690 5694
5682 5680 5678 5675 5672 5669 5665 5662 5658 5655 5651 5648 5646 5644 5642 5641 5641 5641 5641 5642 5643 5645 5646 5648 5650 5652 5655 5657 5659 5661 5664 5666 5669 5672 5675 5678 5681 5684
5677 5675 5673 5670 5667 5663 5659 5655 5652 5648 5644 5641 5638 5636 5634 5633 5632 5631 5631 5631 5632 5634 5635 5637 5639 5641 5644 5646 5648 5650 5653 5656 5659 5661 5664 5667 5670 5674
5673 5671 5668 5665 5661 5658 5654 5650 5646 5642 5638 5635 5632 5629 5627 5626 5624 5623 5622 5622 5622 5623 5624 5626 5628 5630 5632 5634 5637 5639 5641 5644 5647 5650 5653 5656 5659 5662
5669 5667 5664 5660 5657 5653 5649 5645 5641 5637 5633 5630 5626 5624 5621 5619 5618 5616 5615 5614 5614 5613 5613 5614 5616 5618 5620 5622 5624 5627 5630 5632 5635 5638 5641 5644 5647 5651
5665 5662 5660 5656 5653 5649 5645 5640 5636 5632 5628 5625 5621 5618 5616 5613 5611 5609 5608 5606 5605 5605 5604 5604 5605 5606 5607 5610 5612 5614 5618 5620 5623 5626 5628 5631 5635 5638
5661 5658 5656 5653 5649 5645 5641 5637 5632 5628 5624 5620 5616 5613 5610 5607 5605 5602 5600 5599 5597 5596 5595 5594 5594 5594 5595 5597 5600 5602 5605 5608 5611 5614 5617 5619 5622 5625
5657 5655 5652 5649 5646 5642 5638 5634 5629 5624 5620 5616 5612 5608 5605 5601 5598 5596 5593 5591 5589 5587 5586 5585 5584 5584 5584 5585 5587 5590 5592 5595 5599 5602 5605 5609 5611 5614
5653 5651 5648 5645 5642 5639 5635 5630 5626 5621 5616 5611 5607 5603 5599 5596 5592 5589 5586 5583 5581 5579 5577 5575 5574 5574 5574 5575 5576 5578 5581 5583 5586 5590 5593 5597 5599 5602
5648 5646 5644 5642 5639 5635 5631 5627 5622 5617 5612 5607 5602 5598 5594 5590 5586 5582 5579 5576 5573 5570 5568 5566 5565 5564 5564 5564 5565 5566 5569 5571 5574 5578 5581 5584 5588 5591